User: anonymous   Login
Location: Unspecified
(0.0000°N, 0.0000°E)
Time: 14:01:00
(UTC+00:00)
Language:

BIROS - Orbit

View from above orbital plane
View from above orbital plane
View from above satellite
View from above satellite

Ground track
Ground track

The orbit data is extracted from the following two-line orbital elements,

1 41604U 16040F   21330.77535364  .00001291  00000-0  57720-4 0  9993
2 41604  97.2417  17.6507 0013422 124.3191 235.9319 15.22983889301603
Epoch (UTC): 26 November 2021 18:36:30
Eccentricity: 0.0013422
inclination: 97.2417°
perigee height: 487 km
apogee height: 506 km
right ascension of ascending node: 17.6507°
argument of perigee: 124.3191°
revolutions per day: 15.22983889
mean anomaly at epoch: 235.9319°
orbit number at epoch: 30160

The dashed part of the orbit path shows where the satellite is in the earth's shadow,  

DLR